STARLINK-35414, 65798

Orbit data source: Space-Track

STARLINK-35414, 65798 is a payload satellite owned by SpaceX/Seattle (US) in SSO that was launched on Fri, 26 Sep 2025 UTC via an FALCON 9 launch vehicle from the Air Force Western Test Range (AFWTR). Payload-class satellites include a variety of spacecraft equipped with specific instruments for various scientific and technological missions. These include communications satellites like Starlink; space stations such as the ISS; scientific satellites like the Hubble; Earth observation satellites from companies like Planet Labs, Umbra, and HawkEye 360; GPS; miniature CubeSats for education and research; and military/defense satellites.

Loading next visibility...
Identifier
65798, 2025-218H
Orbit
SSO
Country
Flag of USUS
Related business
Manufacturer
SpaceX/Seattle
Mission
Operational Commercial Communications
Bus & Motor
STARLINK V2MO, Unknown motor
Mass
575 kg wet, ~530 kg dry
Launch date (UTC)
2025-09-26 (2 months ago)
Launch vehicle
FALCON 9
Launch site
Air Force Western Test Range (AFWTR)
Object type
Payload
Rocket body
Debris
Shape & HBR
Box + 2 Pan, 17.7 m
Radar Cross Section
36.964 m²

Expand to show TLE details & history
Last TLE update: 15 hours ago

TLE from 15 hours ago
0 STARLINK-35414
1 65798U 25218H   25340.61137941  .00011017  00000-0  76635-3 0  9999
2 65798  97.6029 201.2010 0002304  87.2204 272.9287 15.05658030 10964
Epoch: 2025-12-06T14:40Z
TLE epoch observation values (Epoch: 2025-12-06T14:40:23.181Z)
Latitude
0.00006°
Longitude
-94.53223°
Altitude
552.47 km
Speed
7.586 km/s
True Right ascension
13h 24m 48s
True Declination
0° 00' 00"
Sunlit
Object was in daylight at epoch
Visualization orbit readout
Latitude
Unknown
Longitude
Unknown
Altitude
Unknown
Speed
Unknown
Apparent Right ascension
Unknown
Apparent Declination
Unknown
Sunlit
N/A
Visualization observer readout
Local Sidereal Time
04:06:52
Azimuth
Unknown
Elevation
Unknown
Doppler factor
Unknown
Orbital elements
Apogee altitude
548.075 km
Perigee altitude
544.885 km
Semi-major axis
6,924.617 km
Eccentricity
0.00023
Inclination
97.6029°
RAAN
201.201°
Arg. of periapsis
87.2204°
True anomaly
272.90233°
Mean anomaly
272.9287°
Eccentric anomaly
272.91552°
Mean motion
3.7666 °/min
Orbital period
95.58 mins
BSTAR
0.00076635
Loading maneuver chart data...
Computing Atmospheric mass density...
Loading historical data...
Loading historical data...
Loading historical data...
Loading historical data...
Loading historical data...
Loading historical data...
Loading historical data...

Documentation

Showing up to 5 results
|